{"data":{"norad_id":60916,"epoch":"2026-05-25T02:23:30.090912Z","epoch_age_seconds":73260,"freshness":"FRESH","line1":"1 60916U 24154P   26145.09965383 -.00001457  00000+0 -37079-4 0  9997","line2":"2 60916  53.1608 288.9256 0000939 100.3355 259.7752 15.30203920 98037","mean_motion":15.3020392,"eccentricity":9.39e-5,"inclination_deg":53.1608,"raan_deg":288.9256,"arg_perigee_deg":100.3355,"mean_anomaly_deg":259.7752,"bstar":-3.7079e-5,"rev_number":9803,"period_min":94.105104632068,"perigee_km":474.55983637062,"apogee_km":475.84689369117,"semimajor_km":6853.3403650309,"source":"CELESTRAK","updated_at":"2026-05-25T13:38:19.314746Z"}}